H1 CPF 2 NER 2025 9 1 9 244 01 glonass146 H2 2216101 9146 54377 2025 9 1 0 0 0 2025 9 4 23 45 0 900 1 1 0 0 0 1 H9 10 0 60919 0.00000 0 8542552.193 17845635.513 -16062746.010 10 0 60919 900.00000 0 6983910.059 16406250.583 -18208774.091 10 0 60919 1800.00000 0 5128285.392 14941924.934 -20000193.906 10 0 60919 2700.00000 0 3004529.279 13512115.289 -21402200.540 10 0 60919 3600.00000 0 653034.532 12171202.204 -22387601.627 10 0 60919 4500.00000 0 -1875702.148 10966237.110 -22937341.099 10 0 60919 5400.00000 0 -4522944.634 9935019.874 -23040861.687 10 0 60919 6300.00000 0 -7223930.569 9104586.967 -22696299.937 10 0 60919 7200.00000 0 -9910341.013 8490172.670 -21910510.859 10 0 60919 8100.00000 0 -12512923.742 8094685.488 -20698922.654 10 0 60919 9000.00000 0 -14964161.292 7908720.114 -19085225.197 10 0 60919 9900.00000 0 -17200873.168 7911102.660 -17100899.066 10 0 60919 10800.00000 0 -19166644.687 8069944.547 -14784594.867 10 0 60919 11700.00000 0 -20813982.333 8344159.138 -12181375.342 10 0 60919 12600.00000 0 -22106107.026 8685375.949 -9341835.326 10 0 60919 13500.00000 0 -23018311.952 9040170.782 -6321116.839 10 0 60919 14400.00000 0 -23538829.789 9352517.067 -3177838.497 10 0 60919 15300.00000 0 -23669174.618 9566354.637 27039.901 10 0 60919 16200.00000 0 -23423945.727 9628167.446 3231395.700 10 0 60919 17100.00000 0 -22830102.787 9489461.552 6373141.985 10 0 60919 18000.00000 0 -21925743.867 9109039.037 9391423.480 10 0 60919 18900.00000 0 -20758438.148 8454972.202 12227787.072 10 0 60919 19800.00000 0 -19383183.590 7506194.921 14827304.908 10 0 60919 20700.00000 0 -17860075.059 6253644.080 17139629.027 10 0 60919 21600.00000 0 -16251780.149 4700902.635 19119957.996 10 0 60919 22500.00000 0 -14620927.665 2864316.422 20729897.705 10 0 60919 23400.00000 0 -13027517.085 772578.555 21938200.477 10 0 60919 24300.00000 0 -11526456.328 -1534202.951 22721368.907 10 0 60919 25200.00000 0 -10165329.712 -4005917.421 23064113.181 10 0 60919 26100.00000 0 -8982488.596 -6584286.985 22959653.135 10 0 60919 27000.00000 0 -8005543.855 -9205051.146 22409858.990 10 0 60919 27900.00000 0 -7250322.954 -11800411.743 21425227.412 10 0 60919 28800.00000 0 -6720335.251 -14301638.484 20024692.366 10 0 60919 29700.00000 0 -6406768.252 -16641728.198 18235273.215 10 0 60919 30600.00000 0 -6289015.451 -18758008.106 16091565.437 10 0 60919 31500.00000 0 -6335714.218 -20594575.100 13635082.436 10 0 60919 32400.00000 0 -6506250.597 -22104469.242 10913459.899 10 0 60919 33300.00000 0 -6752667.972 -23251490.190 7979537.115 10 0 60919 34200.00000 0 -7021899.128 -24011579.739 4890332.448 10 0 60919 35100.00000 0 -7258226.998 -24373711.621 1705932.719 10 0 60919 36000.00000 0 -7405869.244 -24340250.313 -1511681.687 10 0 60919 36900.00000 0 -7411575.994 -23926763.070 -4699852.300 10 0 60919 37800.00000 0 -7227129.173 -23161292.726 -7796473.940 10 0 60919 38700.00000 0 -6811635.761 -22083121.897 -10741216.696 10 0 60919 39600.00000 0 -6133515.971 -20741081.069 -13476713.243 10 0 60919 40500.00000 0 -5172100.395 -19191472.632 -15949687.105 10 0 60919 41400.00000 0 -3918766.944 -17495699.284 -18111998.745 10 0 60919 42300.00000 0 -2377568.190 -15717697.772 -19921588.300 10 0 60919 43200.00000 0 -565321.588 -13921286.928 -21343296.180 10 0 60919 44100.00000 0 1488841.971 -12167542.252 -22349545.548 10 0 60919 45000.00000 0 3744452.795 -10512307.760 -22920873.674 10 0 60919 45900.00000 0 6151159.601 -9003949.437 -23046302.455 10 0 60919 46800.00000 0 8650608.432 -7681443.985 -22723541.726 10 0 60919 47700.00000 0 11178664.792 -6572881.969 -21959022.264 10 0 60919 48600.00000 0 13667886.332 -5694446.661 -20767758.804 10 0 60919 49500.00000 0 16050143.144 -5049909.592 -19173046.554 10 0 60919 50400.00000 0 18259276.751 -4630662.040 -17205997.858 10 0 60919 51300.00000 0 20233687.492 -4416279.070 -14904928.618 10 0 60919 52200.00000 0 21918743.199 -4375590.510 -12314606.818 10 0 60919 53100.00000 0 23268909.612 -4468212.045 -9485378.122 10 0 60919 54000.00000 0 24249514.757 -4646470.554 -6472185.711 10 0 60919 54900.00000 0 24838074.842 -4857641.390 -3333503.480 10 0 60919 55800.00000 0 25025127.519 -5046402.575 -130203.353 10 0 60919 56700.00000 0 24814538.946 -5157401.879 3075621.404 10 0 60919 57600.00000 0 24223272.946 -5137828.391 6221854.286 10 0 60919 58500.00000 0 23280632.862 -4939880.074 9247552.091 10 0 60919 59400.00000 0 22027008.519 -4523023.447 12094117.218 10 0 60919 60300.00000 0 20512181.096 -3855950.227 14706423.636 10 0 60919 61200.00000 0 18793256.777 -2918148.567 17033875.412 10 0 60919 62100.00000 0 16932315.262 -1701022.509 19031378.167 10 0 60919 63000.00000 0 14993870.664 -208512.010 20660205.540 10 0 60919 63900.00000 0 13042249.924 1542813.519 21888744.683 10 0 60919 64800.00000 0 11138997.061 3524193.508 22693107.069 10 0 60919 65700.00000 0 9340410.394 5695629.939 23057593.248 10 0 60919 66600.00000 0 7695314.416 8007318.739 22975002.680 10 0 60919 67500.00000 0 6243158.365 10401501.452 22446782.455 10 0 60919 68400.00000 0 5012520.194 12814662.314 21483011.401 10 0 60919 69300.00000 0 4020078.096 15179981.247 20102218.931 10 0 60919 70200.00000 0 3270092.502 17429942.306 18331040.932 10 0 60919 71100.00000 0 2754420.428 19498990.145 16203717.931 10 0 60919 72000.00000 0 2453061.918 21326124.342 13761443.852 10 0 60919 72900.00000 0 2335215.948 22857323.391 11051576.706 10 0 60919 73800.00000 0 2360801.642 24047696.626 8126725.452 10 0 60919 74700.00000 0 2482380.665 24863273.123 5043730.150 10 0 60919 75600.00000 0 2647399.338 25282351.535 1862554.986 10 0 60919 76500.00000 0 2800654.947 25296353.021 -1354884.021 10 0 60919 77400.00000 0 2886880.794 24910140.356 -4545933.103 10 0 60919 78300.00000 0 2853339.044 24141789.035 -7648431.891 10 0 60919 79200.00000 0 2652309.825 23021819.534 -10601936.394 10 0 60919 80100.00000 0 2243369.301 21591923.055 -13348908.544 10 0 60919 81000.00000 0 1595358.442 19903234.771 -15835847.823 10 0 60919 81900.00000 0 687957.484 18014227.906 -18014341.840 10 0 60919 82800.00000 0 -487201.912 15988318.131 -19842014.516 10 0 60919 83700.00000 0 -1925934.906 13891279.830 -21283353.011 10 0 60919 84600.00000 0 -3611438.349 11788583.481 -22310397.236 10 0 60919 85500.00000 0 -5514765.559 9742766.354 -22903278.800 10 0 60920 0.00000 0 -7595821.169 7810946.938 -23050599.544 10 0 60920 900.00000 0 -9804835.606 6042585.800 -22749643.078 10 0 60920 1800.00000 0 -12084254.682 4477588.232 -22006416.031 10 0 60920 2700.00000 0 -14370968.944 3144823.334 -20835519.396 10 0 60920 3600.00000 0 -16598787.000 2061122.301 -19259853.028 10 0 60920 4500.00000 0 -18701050.750 1230794.813 -17310159.958 10 0 60920 5400.00000 0 -20613283.500 645681.735 -15024419.943 10 0 60920 6300.00000 0 -22275760.909 285739.717 -12447104.485 10 0 60920 7200.00000 0 -23635898.049 120131.065 -9628308.122 10 0 60920 8100.00000 0 -24650353.696 108771.205 -6622773.083 10 0 60920 9000.00000 0 -25286764.842 204267.079 -3488826.299 10 0 60920 9900.00000 0 -25525039.884 354163.671 -287249.477 10 0 60920 10800.00000 0 -25358157.417 503403.154 2919895.952 10 0 60920 11700.00000 0 -24792438.136 596892.522 6070466.426 10 0 60920 12600.00000 0 -23847279.245 582071.247 9103433.431 10 0 60920 13500.00000 0 -22554363.054 411370.746 11960057.551 10 0 60920 14400.00000 0 -20956373.140 44462.093 14585017.242 10 0 60920 15300.00000 0 -19105271.684 -549802.575 16927471.191 10 0 60920 16200.00000 0 -17060209.558 -1391836.732 18942034.514 10 0 60920 17100.00000 0 -14885155.659 -2490219.856 20589650.804 10 0 60920 18000.00000 0 -12646343.410 -3841098.397 21838343.929 10 0 60920 18900.00000 0 -10409639.633 -5428113.594 22663835.768 10 0 60920 19800.00000 0 -8237944.127 -7222860.688 23050018.365 10 0 60920 20700.00000 0 -6188727.004 -9185862.238 22989271.544 10 0 60920 21600.00000 0 -4311805.175 -11268017.025 22482619.607 10 0 60920 22500.00000 0 -2647449.731 -13412466.295 21539723.518 10 0 60920 23400.00000 0 -1224902.457 -15556801.595 20178707.764 10 0 60920 24300.00000 0 -61363.078 -17635523.941 18425824.046 10 0 60920 25200.00000 0 838510.551 -19582653.158 16314956.895 10 0 60920 26100.00000 0 1482568.251 -21334379.262 13886979.405 10 0 60920 27000.00000 0 1890600.556 -22831645.402 11188970.262 10 0 60920 27900.00000 0 2093262.663 -24022553.980 8273306.184 10 0 60920 28800.00000 0 2130534.556 -24864494.351 5196646.774 10 0 60920 29700.00000 0 2049782.543 -25325901.705 2018831.252 10 0 60920 30600.00000 0 1903504.688 -25387571.921 -1198291.233 10 0 60920 31500.00000 0 1746856.453 -25043475.731 -4392074.237 10 0 60920 32400.00000 0 1635062.648 -24301036.783 -7500304.934 10 0 60920 33300.00000 0 1620826.880 -23180860.981 -10462428.078 10 0 60920 34200.00000 0 1751850.019 -21715928.037 -13220737.723 10 0 60920 35100.00000 0 2068564.541 -19950279.159 -15721512.178 10 0 60920 36000.00000 0 2602182.365 -17937256.386 -17916068.978 10 0 60920 36900.00000 0 3373140.193 -15737368.158 -19761718.436 10 0 60920 37800.00000 0 4390009.226 -13415871.475 -21222596.806 10 0 60920 38700.00000 0 5648916.120 -11040172.703 -22270362.738 10 0 60920 39600.00000 0 7133500.125 -8677156.502 -22884743.771 10 0 60920 40500.00000 0 8815408.482 -6390554.837 -23053922.817 10 0 60920 41400.00000 0 10655309.360 -4238465.850 -22774757.914 10 0 60920 42300.00000 0 12604379.757 -2271125.635 -22052831.885 10 0 60920 43200.00000 0 14606205.921 -529024.795 -20902331.840 10 0 60920 44100.00000 0 16599016.647 958553.134 -19345761.746 10 0 60920 45000.00000 0 18518155.958 2174512.268 -17413494.380 10 0 60920 45900.00000 0 20298691.893 3114405.156 -15143172.015 10 0 60920 46800.00000 0 21878052.554 3786356.828 -12578967.895 10 0 60920 47700.00000 0 23198579.546 4210457.531 -9770723.239 10 0 60920 48600.00000 0 24209892.585 4417651.832 -6772976.723 10 0 60920 49500.00000 0 24870966.989 4448172.614 -3643905.362 10 0 60920 50400.00000 0 25151837.838 4349587.385 -444197.425 10 0 60920 51300.00000 0 25034860.252 4174540.306 2764120.873 10 0 60920 52200.00000 0 24515473.729 3978285.822 5918882.331 10 0 60920 53100.00000 0 23602439.150 3816118.246 8958976.471 10 0 60920 54000.00000 0 22317538.954 3740805.750 11825525.220 10 0 60920 54900.00000 0 20694753.157 3800136.783 14463014.441 10 0 60920 55800.00000 0 18778945.500 4034682.116 16820360.044 10 0 60920 56700.00000 0 16624114.149 4475866.556 18851888.912 10 0 60920 57600.00000 0 14291279.061 5144431.504 20518216.507 10 0 60920 58500.00000 0 11846093.057 6049353.266 21787004.964 10 0 60920 59400.00000 0 9356274.735 7187263.256 22633587.730 10 0 60920 60300.00000 0 6888968.650 8542395.527 23041449.113 10 0 60920 61200.00000 0 4508141.119 10087065.357 23002549.630 10 0 60920 62100.00000 0 2272118.648 11782660.737 22517490.684 10 0 60920 63000.00000 0 231370.174 13581107.347 21595514.804 10 0 60920 63900.00000 0 -1573375.375 15426747.868 20254340.520 10 0 60920 64800.00000 0 -3112598.386 17258558.973 18519833.892 10 0 60920 65700.00000 0 -4368983.722 19012614.967 16425521.633 10 0 60920 66600.00000 0 -5337900.161 20624696.049 14011953.877 10 0 60920 67500.00000 0 -6027343.980 22032932.585 11325927.606 10 0 60920 68400.00000 0 -6457348.896 23180374.502 8419584.758 10 0 60920 69300.00000 0 -6658887.163 24017377.351 5349401.819 10 0 60920 70200.00000 0 -6672308.271 24503703.740 2175090.316 10 0 60920 71100.00000 0 -6545381.640 24610250.358 -1041570.224 10 0 60920 72000.00000 0 -6331026.810 24320326.382 -4237943.406 10 0 60920 72900.00000 0 -6084828.362 23630427.930 -7351766.596 10 0 60920 73800.00000 0 -5862442.197 22550474.696 -10322375.807 10 0 60920 74700.00000 0 -5717004.689 21103497.823 -13091899.543 10 0 60920 75600.00000 0 -5696656.139 19324791.654 -15606397.052 10 0 60920 76500.00000 0 -5842285.006 17260564.869 -17816917.662 10 0 60920 77400.00000 0 -6185589.795 14966147.917 -19680459.719 10 0 60920 78300.00000 0 -6747541.711 12503832.419 -21160809.966 10 0 60920 79200.00000 0 -7537313.792 9940433.609 -22229246.973 10 0 60920 80100.00000 0 -8551722.222 7344678.399 -22865095.148 10 0 60920 81000.00000 0 -9775203.493 4784528.490 -23056119.168 10 0 60920 81900.00000 0 -11180328.368 2324550.295 -22798751.925 10 0 60920 82800.00000 0 -12728830.808 23440.987 -22098152.457 10 0 60920 83700.00000 0 -14373108.363 -2068187.066 -20968093.687 10 0 60920 84600.00000 0 -16058130.823 -3909672.444 -19430682.991 10 0 60920 85500.00000 0 -17723676.849 -5471745.290 -17515921.817 10 0 60921 0.00000 0 -19306804.621 -6737484.237 -15261113.730 10 0 60921 900.00000 0 -20744453.841 -7702752.579 -12710131.580 10 0 60921 1800.00000 0 -21976068.129 -8376096.131 -9912561.482 10 0 60921 2700.00000 0 -22946131.096 -8778111.612 -6922736.392 10 0 60921 3600.00000 0 -23606508.104 -8940312.383 -3798681.095 10 0 60921 4500.00000 0 -23918496.935 -8903541.712 -600987.980 10 0 60921 5400.00000 0 -23854501.871 -8716001.610 2608354.507 10 0 60921 6300.00000 0 -23399261.511 -8430981.237 5767158.186 10 0 60921 7200.00000 0 -22550579.341 -8104381.166 8814233.351 10 0 60921 8100.00000 0 -21319526.729 -7792138.083 11690566.058 10 0 60921 9000.00000 0 -19730109.872 -7547658.353 14340452.327 10 0 60921 9900.00000 0 -17818414.374 -7419368.340 16712567.947 10 0 60921 10800.00000 0 -15631262.615 -7448484.281 18760954.027 10 0 60921 11700.00000 0 -13224439.000 -7667095.303 20445900.073 10 0 60921 12600.00000 0 -10660555.888 -8096640.136 21734708.304 10 0 60921 13500.00000 0 -8006647.581 -8746841.746 22602325.145 10 0 60921 14400.00000 0 -5331590.864 -9615145.276 23031828.138 10 0 60921 15300.00000 0 -2703457.711 -10686683.900 23014759.042 10 0 60921 16200.00000 0 -186908.611 -11934775.498 22551296.495 10 0 60921 17100.00000 0 2159266.552 -13321931.058 21650264.341 10 0 60921 18000.00000 0 4284358.870 -14801334.497 20328974.568 10 0 60921 18900.00000 0 6147610.861 -16318733.749 18612906.686 10 0 60921 19800.00000 0 7719669.509 -17814665.601 16535228.369 10 0 60921 20700.00000 0 8983561.402 -19226922.279 14136165.267 10 0 60921 21600.00000 0 9935149.165 -20493157.093 11462230.850 10 0 60921 22500.00000 0 10583049.926 -21553519.940 8565330.170 10 0 60921 23400.00000 0 10948019.144 -22353211.481 5501754.256 10 0 60921 24300.00000 0 11061825.772 -22844847.615 2331084.391 10 0 60921 25200.00000 0 10965666.477 -22990533.341 -884972.206 10 0 60921 26100.00000 0 10708186.502 -22763556.991 -4083791.958 10 0 60921 27000.00000 0 10343191.799 -22149631.776 -7203065.218 10 0 60921 27900.00000 0 9927150.500 -21147630.671 -10182022.028 10 0 60921 28800.00000 0 9516591.000 -19769782.381 -12962628.063 10 0 60921 29700.00000 0 9165508.390 -18041319.112 -15490726.116 10 0 60921 30600.00000 0 8922890.601 -15999590.424 -17717099.778 10 0 60921 31500.00000 0 8830470.333 -13692680.174 -19598437.667 10 0 60921 32400.00000 0 8920798.914 -11177584.760 -21098178.993 10 0 60921 33300.00000 0 9215724.263 -8518029.247 -22187223.873 10 0 60921 34200.00000 0 9725337.578 -5782013.193 -22844494.840 10 0 60921 35100.00000 0 10447433.223 -3039188.966 -23057339.177 10 0 60921 36000.00000 0 11367504.347 -358182.003 -22821765.065 10 0 60921 36900.00000 0 12459273.972 2196035.491 -22142507.802 10 0 60921 37800.00000 0 13685738.682 4564608.644 -21032925.792 10 0 60921 38700.00000 0 15000680.506 6697000.286 -19514729.144 10 0 60921 39600.00000 0 16350582.967 8552837.329 -17617546.950 10 0 60921 40500.00000 0 17676870.471 10103328.062 -15378342.274 10 0 60921 41400.00000 0 18918376.785 11332193.320 -12840686.672 10 0 60921 42300.00000 0 20013938.899 12236074.856 -10053908.707 10 0 60921 43200.00000 0 20905007.482 12824406.125 -7072133.206 10 0 60921 44100.00000 0 21538164.571 13118753.074 -3953230.012 10 0 60921 45000.00000 0 21867443.130 13151654.551 -757692.673 10 0 60921 45900.00000 0 21856351.527 12965012.671 2452531.241 10 0 60921 46800.00000 0 21479518.319 12608102.081 5615235.742 10 0 60921 47700.00000 0 20723888.690 12135282.733 8669155.013 10 0 60921 48600.00000 0 19589422.516 11603512.845 11555142.230 10 0 60921 49500.00000 0 18089264.772 11069766.845 14217306.361 10 0 60921 50400.00000 0 16249380.797 10588466.755 16604085.618 10 0 60921 51300.00000 0 14107671.013 10209034.688 18669237.592 10 0 60921 52200.00000 0 11712601.040 9973668.959 20372727.783 10 0 60921 53100.00000 0 9121403.037 9915436.907 21681500.115 10 0 60921 54000.00000 0 6397921.599 10056764.379 22570115.240 10 0 60921 54900.00000 0 3610192.034 10408385.438 23021244.793 10 0 60921 55800.00000 0 827849.922 10968796.909 23026012.186 10 0 60921 56700.00000 0 -1880522.225 11724241.558 22584173.230 10 0 60921 57600.00000 0 -4450002.585 12649221.900 21704132.534 10 0 60921 58500.00000 0 -6821784.858 13707524.639 20402794.478 10 0 60921 59400.00000 0 -8945379.234 14853714.397 18705250.478 10 0 60921 60300.00000 0 -10780468.498 16035035.676 16644307.214 10 0 60921 61200.00000 0 -12298342.109 17193644.499 14259863.545 10 0 60921 62100.00000 0 -13482848.402 18269076.909 11598146.879 10 0 60921 63000.00000 0 -14330824.854 19200850.920 8710822.692 10 0 60921 63900.00000 0 -14851988.164 19931092.207 5653993.786 10 0 60921 64800.00000 0 -15068288.643 20407072.178 2487108.444 10 0 60921 65700.00000 0 -15012756.200 20583550.170 -728201.142 10 0 60921 66600.00000 0 -14727886.951 20424819.380 -3929326.859 10 0 60921 67500.00000 0 -14263639.354 19906368.397 -7053914.590 10 0 60921 68400.00000 0 -13675125.611 19016086.454 -10041090.823 10 0 60921 69300.00000 0 -13020097.321 17754959.887 -12832660.635 10 0 60921 70200.00000 0 -12356333.225 16137229.153 -15374252.403 10 0 60921 71100.00000 0 -11739041.055 14189998.734 -17616385.771 10 0 60921 72000.00000 0 -11218384.689 11952315.800 -19515441.171 10 0 60921 72900.00000 0 -10837242.264 9473756.016 -21034511.553 10 0 60921 73800.00000 0 -10629290.635 6812575.806 -22144119.604 10 0 60921 74700.00000 0 -10617497.399 4033508.581 -22822786.734 10 0 60921 75600.00000 0 -10813084.010 1205297.222 -23057443.327 10 0 60921 76500.00000 0 -11215003.258 -1601934.163 -22843673.054 10 0 60921 77400.00000 0 -11809952.470 -4319359.749 -22185787.379 10 0 60921 78300.00000 0 -12572921.022 -6882071.644 -21096729.763 10 0 60921 79200.00000 0 -13468248.263 -9231531.415 -19597812.290 10 0 60921 80100.00000 0 -14451146.476 -11317752.609 -17718290.609 10 0 60921 81000.00000 0 -15469624.134 -13101124.888 -15494786.113 10 0 60921 81900.00000 0 -16466728.007 -14553805.606 -12970567.006 10 0 60921 82800.00000 0 -17383009.470 -15660622.770 -10194702.626 10 0 60921 83700.00000 0 -18159111.142 -16419453.809 -7221107.644 10 0 60921 84600.00000 0 -18738365.083 -16841066.448 -4107494.795 10 0 60921 85500.00000 0 -19069293.454 -16948430.308 -914256.508 10 0 60922 0.00000 0 -19107906.738 -16775529.910 2296702.632 10 0 60922 900.00000 0 -18819703.174 -16365730.181 5463161.908 10 0 60922 1800.00000 0 -18181285.637 -15769764.472 8523781.714 10 0 60922 2700.00000 0 -17181528.269 -15043429.976 11419285.010 10 0 60922 3600.00000 0 -15822243.698 -14245087.826 14093596.395 10 0 60922 4500.00000 0 -14118322.626 -13433072.831 16494919.119 10 0 60922 5400.00000 0 -12097339.213 -12663121.297 18576729.714 10 0 60922 6300.00000 0 -9798637.732 -11985924.466 20298671.892 10 0 60922 7200.00000 0 -7271937.225 -11444909.691 21627333.165 10 0 60922 8100.00000 0 -4575510.654 -11074342.013 22536889.928 10 0 60922 9000.00000 0 -1774012.412 -10897825.456 23009608.993 10 0 60922 9900.00000 0 1063957.426 -10927266.964 23036196.096 10 0 60922 10800.00000 0 3868452.884 -11162346.804 22615984.474 10 0 60922 11700.00000 0 6570839.730 -11590518.417 21756959.360 10 0 60922 12600.00000 0 9106402.093 -12187538.785 20475617.028 10 0 60922 13500.00000 0 11416790.881 -12918508.363 18796659.965 10 0 60922 14400.00000 0 13452212.921 -13739378.262 16752532.676 10 0 60922 15300.00000 0 15173269.948 -14598862.549 14382805.731 10 0 60922 16200.00000 0 16552370.719 -15440676.207 11733418.633 10 0 60922 17100.00000 0 17574656.997 -16206005.050 8855795.101 10 0 60922 18000.00000 0 18238404.221 -16836103.502 5805847.230 10 0 60922 18900.00000 0 18554879.761 -17274910.115 2642887.536 10 0 60922 19800.00000 0 18547664.521 -17471569.367 -571529.762 10 0 60922 20700.00000 0 18251466.596 -17382751.719 -3774815.073 10 0 60922 21600.00000 0 17710477.450 -16974672.156 -6904572.868 10 0 60922 22500.00000 0 16976340.847 -16224720.056 -9899829.063 10 0 60922 23400.00000 0 16105821.420 -15122629.713 -12702230.978 10 0 60922 24300.00000 0 15158272.761 -13671140.498 -15257195.212 10 0 60922 25200.00000 0 14193013.388 -11886117.484 -17514979.861 10 0 60922 26100.00000 0 13266722.821 -9796126.511 -19431659.301 10 0 60922 27000.00000 0 12430968.789 -7441480.923 -20969982.042 10 0 60922 27900.00000 0 11729970.701 -4872799.692 -22100094.802 10 0 60922 28800.00000 0 11198694.040 -2149137.253 -22800118.958 10 0 60922 29700.00000 0 10861355.898 664236.696 -23056568.685 10 0 60922 30600.00000 0 10730404.051 3498314.719 -22864603.430 10 0 60922 31500.00000 0 10806011.714 6282983.229 -22228110.712 10 0 60922 32400.00000 0 11076108.124 8949698.816 -21159618.567 10 0 60922 33300.00000 0 11516942.423 11434098.478 -19680040.210 10 0 60922 34200.00000 0 12094155.893 13678435.971 -17818256.679 10 0 60922 35100.00000 0 12764316.280 15633744.052 -15610546.180 10 0 60922 36000.00000 0 13476848.677 17261634.070 -13099871.731 10 0 60922 36900.00000 0 14176280.936 18535659.576 -10335041.283 10 0 60922 37800.00000 0 14804708.581 19442188.951 -7369756.881 10 0 60922 38700.00000 0 15304375.164 19980752.537 -4261571.395 10 0 60922 39600.00000 0 15620259.323 20163851.641 -1070773.171 10 0 60922 40500.00000 0 15702559.712 20016239.153 2140779.881 10 0 60922 41400.00000 0 15508973.377 19573703.424 5310854.317 10 0 60922 42300.00000 0 15006671.870 18881407.585 8378040.426 10 0 60922 43200.00000 0 14173892.137 17991854.766 11282933.933 10 0 60922 44100.00000 0 13001075.258 16962565.015 13969277.843 10 0 60922 45000.00000 0 11491504.946 15853561.423 16385042.961 10 0 60922 45900.00000 0 9661418.414 14724770.629 18483426.996 10 0 60922 46800.00000 0 7539583.934 13633446.132 20223753.778 10 0 60922 47700.00000 0 5166361.420 12631721.809 21572255.972 10 0 60922 48600.00000 0 2592283.498 11764397.377 22502726.892 10 0 60922 49500.00000 0 -123785.798 11067048.011 22997029.291 10 0 60922 50400.00000 0 -2916840.148 10564536.897 23045451.527 10 0 60922 51300.00000 0 -5718179.037 10269992.926 22646904.066 10 0 60922 52200.00000 0 -8458015.093 10184296.625 21808952.046 10 0 60922 53100.00000 0 -11068134.047 10296096.438 20547682.389 10 0 60922 54000.00000 0 -13484498.152 10582355.539 18887406.894 10 0 60922 54900.00000 0 -15649685.713 11009407.216 16860205.686 10 0 60922 55800.00000 0 -17515065.564 11534475.488 14505318.462 10 0 60922 56700.00000 0 -19042615.873 12107597.817 11868393.974 10 0 60922 57600.00000 0 -20206311.015 12673869.510 9000611.196 10 0 60922 58500.00000 0 -20993017.913 13175915.244 5957688.477 10 0 60922 59400.00000 0 -21402863.748 13556483.017 2798799.599 10 0 60922 60300.00000 0 -21449059.098 13761050.047 -414582.068 10 0 60922 61200.00000 0 -21157183.738 13740329.075 -3619888.170 10 0 60922 62100.00000 0 -20563965.261 13452567.418 -6754684.329 10 0 60922 63000.00000 0 -19715602.538 12865539.628 -9757898.261 10 0 60922 63900.00000 0 -18665705.560 11958147.604 -12571021.712 10 0 60922 64800.00000 0 -17472939.772 10721558.739 -15139261.450 10 0 60922 65700.00000 0 -16198475.558 9159832.502 -17412615.702 10 0 60922 66600.00000 0 -14903351.810 7290007.793 -19346854.162 10 0 60922 67500.00000 0 -13645865.864 5141646.506 -20904381.936 10 0 60922 68400.00000 0 -12479100.602 2755851.863 -22054970.478 10 0 60922 69300.00000 0 -11448693.332 183802.433 -22776341.480 10 0 60922 70200.00000 0 -10590940.227 -2515136.957 -23054592.923 10 0 60922 71100.00000 0 -9931315.575 -5275648.503 -22884459.725 10 0 60922 72000.00000 0 -9483467.124 -8028945.745 -22269404.845 10 0 60922 72900.00000 0 -9248728.472 -10705405.547 -21221539.980 10 0 60922 73800.00000 0 -9216167.486 -13237238.507 -19761378.299 10 0 60922 74700.00000 0 -9363167.129 -15561087.182 -17917424.791 10 0 60922 75600.00000 0 -9656512.707 -17620444.873 -15725612.850 10 0 60922 76500.00000 0 -10053938.365 -19367795.374 -13228598.515 10 0 60922 77400.00000 0 -10506066.566 -20766385.884 -10474926.454 10 0 60922 78300.00000 0 -10958657.949 -21791560.703 -7518084.116 10 0 60922 79200.00000 0 -11355076.126 -22431601.721 -4415462.515 10 0 60922 80100.00000 0 -11638863.217 -22688042.234 -1227243.877 10 0 60922 81000.00000 0 -11756317.403 -22575442.579 1984762.338 10 0 60922 81900.00000 0 -11658963.928 -22120638.423 5158312.657 10 0 60922 82800.00000 0 -11305815.558 -21361494.366 8231929.162 10 0 60922 83700.00000 0 -10665327.421 -20345215.947 11146082.587 10 0 60922 84600.00000 0 -9716964.004 -19126291.274 13844336.619 10 0 60922 85500.00000 0 -8452312.223 -17764148.656 16274431.872 99